Time,TemperatureF,DewpointF,PressureIn,WindDirection,WindDirectionDegrees,WindSpeedMPH,WindSpeedGustMPH,Humidity,HourlyPrecipIn,Conditions,Clouds,dailyrainin,SoftwareType,DateUTC
2013-06-13 00:01:00,63.0,47.0,29.90,SSW,195,2.0,5.0,56,0.00,,,0.00,,2013-06-13 07:01:00,
2013-06-13 00:11:00,63.0,48.0,29.91,SE,142,2.0,6.0,57,0.00,,,0.00,,2013-06-13 07:11:00,
2013-06-13 00:22:00,63.0,48.0,29.91,SE,142,2.0,6.0,57,0.00,,,0.00,,2013-06-13 07:22:00,
2013-06-13 00:33:00,63.0,48.0,29.91,SE,141,2.0,6.0,58,0.00,,,0.00,,2013-06-13 07:33:00,
2013-06-13 00:42:00,63.0,48.0,29.91,SE,141,2.0,6.0,58,0.00,,,0.00,,2013-06-13 07:42:00,
2013-06-13 00:52:00,62.0,48.0,29.91,SE,146,2.0,4.0,60,0.00,,,0.00,,2013-06-13 07:52:00,
2013-06-13 01:01:00,62.0,48.0,29.91,SE,146,2.0,4.0,60,0.00,,,0.00,,2013-06-13 08:01:00,
2013-06-13 01:11:00,61.0,47.0,29.91,SE,146,0.0,5.0,60,0.00,,,0.00,,2013-06-13 08:11:00,
2013-06-13 01:22:00,61.0,47.0,29.91,SE,146,0.0,5.0,60,0.00,,,0.00,,2013-06-13 08:22:00,
2013-06-13 01:32:00,61.0,47.0,29.91,SE,128,2.0,4.0,61,0.00,,,0.00,,2013-06-13 08:32:00,
2013-06-13 01:42:00,60.0,47.0,29.91,SE,139,1.0,5.0,61,0.00,,,0.00,,2013-06-13 08:42:00,
2013-06-13 01:52:00,60.0,47.0,29.91,SE,139,1.0,5.0,61,0.00,,,0.00,,2013-06-13 08:52:00,
2013-06-13 02:01:00,60.0,47.0,29.91,South,190,1.0,5.0,62,0.00,,,0.00,,2013-06-13 09:01:00,
2013-06-13 02:11:00,60.0,47.0,29.91,SE,140,3.0,6.0,62,0.00,,,0.00,,2013-06-13 09:11:00,
2013-06-13 02:22:00,60.0,47.0,29.91,SE,140,3.0,6.0,62,0.00,,,0.00,,2013-06-13 09:22:00,
2013-06-13 02:32:00,60.0,47.0,29.92,SE,142,3.0,7.0,62,0.00,,,0.00,,2013-06-13 09:32:00,
2013-06-13 02:42:00,60.0,47.0,29.92,SE,142,3.0,7.0,62,0.00,,,0.00,,2013-06-13 09:42:00,
2013-06-13 02:52:00,60.0,47.0,29.92,SE,142,3.0,7.0,62,0.00,,,0.00,,2013-06-13 09:52:00,
2013-06-13 03:01:00,59.0,47.0,29.92,SE,124,2.0,4.0,64,0.00,,,0.00,,2013-06-13 10:01:00,
2013-06-13 03:11:00,58.0,47.0,29.92,ESE,109,1.0,4.0,66,0.00,,,0.00,,2013-06-13 10:11:00,
2013-06-13 03:22:00,58.0,47.0,29.92,ESE,109,1.0,4.0,66,0.00,,,0.00,,2013-06-13 10:22:00,
2013-06-13 03:33:00,57.0,46.0,29.93,East,84,0.0,2.0,67,0.00,,,0.00,,2013-06-13 10:33:00,
2013-06-13 03:42:00,56.0,46.0,29.93,SE,125,0.0,4.0,69,0.00,,,0.00,,2013-06-13 10:42:00,
2013-06-13 03:53:00,56.0,46.0,29.93,SE,125,0.0,4.0,69,0.00,,,0.00,,2013-06-13 10:53:00,
2013-06-13 04:01:00,56.0,46.0,29.93,SE,125,0.0,4.0,69,0.00,,,0.00,,2013-06-13 11:01:00,
2013-06-13 04:11:00,56.0,46.0,29.93,East,84,0.0,3.0,70,0.00,,,0.00,,2013-06-13 11:11:00,
2013-06-13 04:23:00,56.0,46.0,29.93,East,84,0.0,3.0,70,0.00,,,0.00,,2013-06-13 11:23:00,
2013-06-13 04:32:00,56.0,46.0,29.93,East,84,0.0,3.0,70,0.00,,,0.00,,2013-06-13 11:32:00,
2013-06-13 04:42:00,56.0,46.0,29.93,East,84,0.0,3.0,70,0.00,,,0.00,,2013-06-13 11:42:00,
2013-06-13 04:52:00,56.0,46.0,29.93,East,84,0.0,3.0,70,0.00,,,0.00,,2013-06-13 11:52:00,
2013-06-13 05:11:00,55.0,46.0,29.95,East,89,0.0,1.0,72,0.00,,,0.00,,2013-06-13 12:11:00,
2013-06-13 05:22:00,55.0,46.0,29.95,East,89,0.0,1.0,72,0.00,,,0.00,,2013-06-13 12:22:00,
2013-06-13 05:34:00,54.0,46.0,29.95,SE,134,0.0,0.0,73,0.00,,,0.00,,2013-06-13 12:34:00,
2013-06-13 05:42:00,54.0,46.0,29.96,SE,131,0.0,0.0,73,0.00,,,0.00,,2013-06-13 12:42:00,
2013-06-13 05:52:00,54.0,46.0,29.96,SE,131,0.0,0.0,73,0.00,,,0.00,,2013-06-13 12:52:00,
2013-06-13 06:01:00,54.0,46.0,29.96,East,89,0.0,2.0,74,0.00,,,0.00,,2013-06-13 13:01:00,
2013-06-13 06:11:00,54.0,46.0,29.96,East,89,0.0,2.0,74,0.00,,,0.00,,2013-06-13 13:11:00,
2013-06-13 06:21:00,54.0,46.0,29.96,East,89,0.0,2.0,74,0.00,,,0.00,,2013-06-13 13:21:00,
2013-06-13 06:32:00,55.0,47.0,29.97,East,89,0.0,0.0,73,0.00,,,0.00,,2013-06-13 13:32:00,
2013-06-13 06:43:00,55.0,47.0,29.97,East,89,0.0,0.0,73,0.00,,,0.00,,2013-06-13 13:43:00,
2013-06-13 06:53:00,55.0,47.0,29.97,East,89,0.0,0.0,73,0.00,,,0.00,,2013-06-13 13:53:00,
2013-06-13 07:01:00,55.0,47.0,29.98,SE,127,1.0,2.0,74,0.00,,,0.00,,2013-06-13 14:01:00,
2013-06-13 07:11:00,55.0,47.0,29.98,SE,127,1.0,2.0,74,0.00,,,0.00,,2013-06-13 14:11:00,
2013-06-13 07:22:00,56.0,47.0,29.98,SE,125,1.0,3.0,71,0.00,,,0.00,,2013-06-13 14:22:00,
2013-06-13 07:33:00,58.0,48.0,29.99,SE,138,1.0,3.0,69,0.00,,,0.00,,2013-06-13 14:33:00,
2013-06-13 07:43:00,59.0,48.0,29.99,East,95,0.0,2.0,66,0.00,,,0.00,,2013-06-13 14:43:00,
2013-06-13 07:53:00,59.0,48.0,29.99,East,95,0.0,2.0,66,0.00,,,0.00,,2013-06-13 14:53:00,
2013-06-13 08:01:00,60.0,47.0,30.00,SE,139,0.0,4.0,63,0.00,,,0.00,,2013-06-13 15:01:00,
2013-06-13 08:11:00,62.0,48.0,30.00,ESE,117,0.0,3.0,61,0.00,,,0.00,,2013-06-13 15:11:00,
2013-06-13 08:21:00,62.0,48.0,30.00,ESE,117,0.0,3.0,61,0.00,,,0.00,,2013-06-13 15:21:00,
2013-06-13 08:33:00,64.0,49.0,30.01,ENE,65,0.0,1.0,58,0.00,,,0.00,,2013-06-13 15:33:00,
2013-06-13 08:43:00,64.0,49.0,30.01,ENE,65,0.0,1.0,58,0.00,,,0.00,,2013-06-13 15:43:00,
2013-06-13 08:53:00,64.0,48.0,30.01,SE,143,1.0,3.0,57,0.00,,,0.00,,2013-06-13 15:53:00,
2013-06-13 09:01:00,66.0,48.0,30.01,ENE,57,0.0,2.0,53,0.00,,,0.00,,2013-06-13 16:01:00,
2013-06-13 09:11:00,67.0,49.0,30.02,East,101,0.0,2.0,52,0.00,,,0.00,,2013-06-13 16:11:00,
2013-06-13 09:22:00,67.0,49.0,30.02,East,101,0.0,2.0,52,0.00,,,0.00,,2013-06-13 16:22:00,
2013-06-13 09:33:00,68.0,49.0,30.03,NNE,20,1.0,2.0,50,0.00,,,0.00,,2013-06-13 16:33:00,
2013-06-13 09:43:00,69.0,49.0,30.03,East,84,1.0,3.0,49,0.00,,,0.00,,2013-06-13 16:43:00,
2013-06-13 09:53:00,69.0,49.0,30.03,East,84,1.0,3.0,49,0.00,,,0.00,,2013-06-13 16:53:00,
2013-06-13 10:02:00,69.0,49.0,30.03,East,96,0.0,2.0,49,0.00,,,0.00,,2013-06-13 17:02:00,
2013-06-13 10:11:00,69.0,49.0,30.03,East,96,0.0,2.0,49,0.00,,,0.00,,2013-06-13 17:11:00,
2013-06-13 10:24:00,70.0,49.0,30.02,NNE,15,2.0,5.0,48,0.00,,,0.00,,2013-06-13 17:24:00,
2013-06-13 10:32:00,71.0,50.0,30.02,SW,222,0.0,4.0,47,0.00,,,0.00,,2013-06-13 17:32:00,
2013-06-13 10:43:00,73.0,50.0,30.03,WNW,297,0.0,3.0,45,0.00,,,0.00,,2013-06-13 17:43:00,
2013-06-13 10:53:00,73.0,50.0,30.03,WNW,297,0.0,3.0,45,0.00,,,0.00,,2013-06-13 17:53:00,
2013-06-13 11:02:00,74.0,50.0,30.03,North,360,2.0,6.0,43,0.00,,,0.00,,2013-06-13 18:02:00,
2013-06-13 11:11:00,74.0,50.0,30.03,North,360,2.0,6.0,43,0.00,,,0.00,,2013-06-13 18:11:00,
2013-06-13 11:22:00,75.0,49.0,30.03,NW,323,2.0,3.0,40,0.00,,,0.00,,2013-06-13 18:22:00,
2013-06-13 11:33:00,76.0,49.0,30.03,WNW,300,1.0,3.0,39,0.00,,,0.00,,2013-06-13 18:33:00,
2013-06-13 11:43:00,76.0,49.0,30.03,North,5,3.0,7.0,38,0.00,,,0.00,,2013-06-13 18:43:00,
2013-06-13 11:52:00,76.0,49.0,30.03,North,5,3.0,7.0,38,0.00,,,0.00,,2013-06-13 18:52:00,
2013-06-13 12:01:00,78.0,50.0,30.03,North,8,0.0,4.0,37,0.00,,,0.00,,2013-06-13 19:01:00,
2013-06-13 12:11:00,77.0,49.0,30.02,West,273,2.0,6.0,38,0.00,,,0.00,,2013-06-13 19:11:00,
2013-06-13 12:22:00,77.0,49.0,30.02,West,273,2.0,6.0,38,0.00,,,0.00,,2013-06-13 19:22:00,
2013-06-13 12:32:00,78.0,49.0,30.02,North,352,3.0,6.0,36,0.00,,,0.00,,2013-06-13 19:32:00,
2013-06-13 12:43:00,79.0,50.0,30.02,SW,233,0.0,5.0,37,0.00,,,0.00,,2013-06-13 19:43:00,
2013-06-13 12:53:00,79.0,50.0,30.02,SW,233,0.0,5.0,37,0.00,,,0.00,,2013-06-13 19:53:00,
2013-06-13 13:01:00,80.0,49.0,30.02,NNW,328,2.0,7.0,34,0.00,,,0.00,,2013-06-13 20:01:00,
2013-06-13 13:11:00,81.0,48.0,30.01,North,360,5.0,8.0,32,0.00,,,0.00,,2013-06-13 20:11:00,
2013-06-13 13:22:00,81.0,48.0,30.01,North,360,5.0,8.0,32,0.00,,,0.00,,2013-06-13 20:22:00,
2013-06-13 13:32:00,82.0,48.0,30.01,North,8,3.0,8.0,31,0.00,,,0.00,,2013-06-13 20:32:00,
2013-06-13 13:43:00,82.0,47.0,30.01,NNW,344,2.0,9.0,29,0.00,,,0.00,,2013-06-13 20:43:00,
2013-06-13 13:53:00,82.0,47.0,30.01,NNW,344,2.0,9.0,29,0.00,,,0.00,,2013-06-13 20:53:00,
2013-06-13 14:01:00,83.0,47.0,30.01,NE,54,1.0,8.0,28,0.00,,,0.00,,2013-06-13 21:01:00,
2013-06-13 14:11:00,83.0,48.0,30.01,WSW,245,1.0,8.0,30,0.00,,,0.00,,2013-06-13 21:11:00,
2013-06-13 14:22:00,83.0,48.0,30.01,WSW,245,1.0,8.0,30,0.00,,,0.00,,2013-06-13 21:22:00,
2013-06-13 14:34:00,83.0,46.0,30.01,NNW,335,3.0,12.0,27,0.00,,,0.00,,2013-06-13 21:34:00,
2013-06-13 14:43:00,83.0,45.0,30.00,West,276,3.0,9.0,26,0.00,,,0.00,,2013-06-13 21:43:00,
2013-06-13 14:52:00,83.0,45.0,30.00,West,276,3.0,9.0,26,0.00,,,0.00,,2013-06-13 21:52:00,
2013-06-13 15:01:00,85.0,45.0,30.00,West,278,2.0,6.0,25,0.00,,,0.00,,2013-06-13 22:01:00,
2013-06-13 15:11:00,85.0,45.0,30.00,West,278,2.0,6.0,25,0.00,,,0.00,,2013-06-13 22:11:00,
2013-06-13 15:22:00,85.0,43.0,29.99,NNW,336,4.0,8.0,23,0.00,,,0.00,,2013-06-13 22:22:00,
2013-06-13 15:32:00,85.0,42.0,29.99,WSW,252,1.0,9.0,22,0.00,,,0.00,,2013-06-13 22:32:00,
2013-06-13 15:42:00,85.0,41.0,29.98,NW,311,1.0,8.0,21,0.00,,,0.00,,2013-06-13 22:42:00,
2013-06-13 15:52:00,85.0,41.0,29.98,NW,311,1.0,8.0,21,0.00,,,0.00,,2013-06-13 22:52:00,
2013-06-13 16:01:00,87.0,41.0,29.98,NNW,335,2.0,6.0,20,0.00,,,0.00,,2013-06-13 23:01:00,
2013-06-13 16:11:00,87.0,41.0,29.98,NNW,335,2.0,6.0,20,0.00,,,0.00,,2013-06-13 23:11:00,
2013-06-13 16:22:00,85.0,38.0,29.98,North,4,5.0,12.0,19,0.00,,,0.00,,2013-06-13 23:22:00,
2013-06-13 16:32:00,86.0,38.0,29.97,NE,37,4.0,7.0,18,0.00,,,0.00,,2013-06-13 23:32:00,
2013-06-13 16:43:00,86.0,39.0,29.96,NNE,20,5.0,11.0,19,0.00,,,0.00,,2013-06-13 23:43:00,
2013-06-13 16:52:00,86.0,39.0,29.96,NNE,20,5.0,11.0,19,0.00,,,0.00,,2013-06-13 23:52:00,
2013-06-13 17:01:00,86.0,39.0,29.96,NNE,23,1.0,3.0,19,0.00,,,0.00,,2013-06-14 00:01:00,
2013-06-13 17:11:00,86.0,39.0,29.96,NNE,23,1.0,3.0,19,0.00,,,0.00,,2013-06-14 00:11:00,
2013-06-13 17:22:00,86.0,41.0,29.96,NNW,333,0.0,7.0,21,0.00,,,0.00,,2013-06-14 00:22:00,
2013-06-13 17:33:00,87.0,42.0,29.96,NE,34,1.0,6.0,21,0.00,,,0.00,,2013-06-14 00:33:00,
2013-06-13 17:43:00,87.0,41.0,29.96,WNW,293,2.0,5.0,20,0.00,,,0.00,,2013-06-14 00:43:00,
2013-06-13 17:53:00,87.0,41.0,29.96,WNW,293,2.0,5.0,20,0.00,,,0.00,,2013-06-14 00:53:00,
2013-06-13 18:01:00,87.0,41.0,29.95,NNW,342,1.0,4.0,20,0.00,,,0.00,,2013-06-14 01:01:00,
2013-06-13 18:11:00,86.0,40.0,29.95,West,266,1.0,7.0,20,0.00,,,0.00,,2013-06-14 01:11:00,
2013-06-13 18:22:00,86.0,40.0,29.95,West,266,1.0,7.0,20,0.00,,,0.00,,2013-06-14 01:22:00,
2013-06-13 18:32:00,86.0,36.0,29.95,North,4,1.0,7.0,17,0.00,,,0.00,,2013-06-14 01:32:00,
2013-06-13 18:43:00,86.0,38.0,29.94,NNW,333,2.0,8.0,18,0.00,,,0.00,,2013-06-14 01:43:00,
2013-06-13 18:52:00,86.0,38.0,29.94,NNW,333,2.0,8.0,18,0.00,,,0.00,,2013-06-14 01:52:00,
2013-06-13 19:01:00,85.0,38.0,29.94,North,354,1.0,4.0,19,0.00,,,0.00,,2013-06-14 02:01:00,
2013-06-13 19:11:00,85.0,38.0,29.94,North,354,1.0,4.0,19,0.00,,,0.00,,2013-06-14 02:11:00,
2013-06-13 19:22:00,84.0,37.0,29.94,WSW,254,0.0,3.0,19,0.00,,,0.00,,2013-06-14 02:22:00,
2013-06-13 19:32:00,83.0,39.0,29.93,West,278,0.0,2.0,21,0.00,,,0.00,,2013-06-14 02:32:00,
2013-06-13 19:43:00,83.0,39.0,29.93,NNE,13,0.0,2.0,21,0.00,,,0.00,,2013-06-14 02:43:00,
2013-06-13 19:52:00,83.0,39.0,29.93,NNE,13,0.0,2.0,21,0.00,,,0.00,,2013-06-14 02:52:00,
2013-06-13 20:02:00,83.0,39.0,29.94,North,350,0.0,2.0,21,0.00,,,0.00,,2013-06-14 03:02:00,
2013-06-13 20:11:00,82.0,41.0,29.94,NW,323,0.0,3.0,23,0.00,,,0.00,,2013-06-14 03:11:00,
2013-06-13 20:22:00,82.0,41.0,29.94,NW,323,0.0,3.0,23,0.00,,,0.00,,2013-06-14 03:22:00,
2013-06-13 20:34:00,81.0,39.0,29.93,North,351,0.0,3.0,22,0.00,,,0.00,,2013-06-14 03:34:00,
2013-06-13 20:43:00,79.0,38.0,29.93,North,351,0.0,0.0,23,0.00,,,0.00,,2013-06-14 03:43:00,
2013-06-13 20:52:00,79.0,38.0,29.93,North,351,0.0,0.0,23,0.00,,,0.00,,2013-06-14 03:52:00,
2013-06-13 21:01:00,78.0,37.0,29.93,North,352,0.0,1.0,23,0.00,,,0.00,,2013-06-14 04:01:00,
2013-06-13 21:12:00,77.0,38.0,29.93,North,351,0.0,0.0,25,0.00,,,0.00,,2013-06-14 04:12:00,
2013-06-13 21:22:00,76.0,46.0,29.94,West,264,0.0,3.0,35,0.00,,,0.00,,2013-06-14 04:22:00,
2013-06-13 21:33:00,76.0,46.0,29.94,West,264,0.0,3.0,35,0.00,,,0.00,,2013-06-14 04:33:00,
2013-06-13 21:43:00,76.0,49.0,29.94,West,266,1.0,3.0,38,0.00,,,0.00,,2013-06-14 04:43:00,
2013-06-13 21:53:00,76.0,49.0,29.94,West,266,1.0,3.0,38,0.00,,,0.00,,2013-06-14 04:53:00,
2013-06-13 22:01:00,74.0,49.0,29.94,West,269,1.0,4.0,41,0.00,,,0.00,,2013-06-14 05:01:00,
2013-06-13 22:11:00,74.0,49.0,29.94,West,269,1.0,4.0,41,0.00,,,0.00,,2013-06-14 05:11:00,
2013-06-13 22:22:00,73.0,49.0,29.94,WSW,256,1.0,5.0,43,0.00,,,0.00,,2013-06-14 05:22:00,
2013-06-13 22:33:00,72.0,49.0,29.94,West,259,1.0,4.0,45,0.00,,,0.00,,2013-06-14 05:33:00,
2013-06-13 22:42:00,72.0,50.0,29.94,WSW,255,1.0,3.0,46,0.00,,,0.00,,2013-06-14 05:42:00,
2013-06-13 22:52:00,72.0,50.0,29.94,WSW,255,1.0,3.0,46,0.00,,,0.00,,2013-06-14 05:52:00,
2013-06-13 23:02:00,71.0,50.0,29.94,West,280,1.0,4.0,48,0.00,,,0.00,,2013-06-14 06:02:00,
2013-06-13 23:11:00,70.0,50.0,29.93,West,259,0.0,2.0,49,0.00,,,0.00,,2013-06-14 06:11:00,
2013-06-13 23:22:00,70.0,50.0,29.93,West,259,0.0,2.0,49,0.00,,,0.00,,2013-06-14 06:22:00,
2013-06-13 23:33:00,70.0,50.0,29.93,West,259,0.0,2.0,49,0.00,,,0.00,,2013-06-14 06:33:00,
2013-06-13 23:43:00,68.0,50.0,29.93,WSW,256,0.0,2.0,53,0.00,,,0.00,,2013-06-14 06:43:00,
2013-06-13 23:52:00,68.0,50.0,29.93,WSW,256,0.0,2.0,53,0.00,,,0.00,,2013-06-14 06:52:00,